Temp
-17 -17 -17 -18 -18 -18 -19 -19 -19 -19 -20 -20 -20 -20 -20 -20 -20 -20 -20 -20 -20 -20 -20 -20 -20 -20 -21 -21 -21 -22 -22 -23 -23 -22 -23 -23 -23 -22 -22 -22 -22 -21 -21
-17 -17 -18 -18 -19 -19 -19 -20 -20 -20 -20 -21 -21 -21 -21 -21 -21 -21 -21 -21 -21 -21 -21 -21 -21 -21 -22 -23 -24 -24 -24 -24 -23 -23 -23 -23 -23 -23 -23 -22 -22 -21 -21
-17 -18 -18 -19 -19 -20 -20 -20 -21 -21 -21 -22 -22 -22 -22 -22 -22 -22 -22 -22 -22 -22 -22 -23 -24 -24 -25 -25 -25 -24 -24 -24 -24 -23 -23 -23 -23 -23 -23 -22 -22 -21 -22
-18 -18 -19 -20 -21 -21 -21 -22 -22 -22 -22 -22 -22 -22 -22 -22 -22 -22 -22 -23 -24 -24 -24 -25 -25 -25 -25 -25 -24 -24 -24 -24 -24 -23 -23 -23 -23 -23 -22 -22 -21 -21 -21
-19 -20 -21 -21 -22 -22 -22 -22 -22 -22 -22 -22 -22 -22 -23 -23 -24 -25 -24 -25 -25 -25 -25 -25 -25 -25 -24 -25 -25 -25 -24 -24 -24 -23 -23 -23 -22 -22 -22 -22 -22 -21 -21
-20 -21 -22 -22 -22 -22 -22 -22 -23 -23 -23 -24 -24 -25 -25 -25 -25 -26 -25 -25 -25 -25 -24 -24 -25 -25 -25 -25 -25 -25 -25 -24 -24 -23 -23 -22 -22 -22 -22 -22 -22 -22 -22
-22 -22 -23 -23 -23 -23 -23 -24 -25 -25 -25 -25 -25 -25 -26 -26 -26 -25 -25 -25 -25 -25 -25 -25 -25 -25 -25 -25 -25 -24 -24 -24 -24 -23 -22 -22 -22 -23 -23 -23 -22 -22 -22
-23 -23 -23 -23 -24 -25 -25 -26 -26 -26 -27 -27 -27 -26 -26 -25 -25 -25 -25 -25 -25 -25 -25 -25 -25 -25 -25 -24 -24 -24 -24 -24 -24 -24 -23 -23 -23 -24 -24 -24 -24 -23 -23
-23 -23 -24 -25 -26 -26 -26 -27 -27 -27 -27 -26 -26 -26 -25 -25 -25 -25 -25 -25 -25 -25 -25 -25 -25 -24 -24 -25 -24 -24 -24 -24 -24 -24 -25 -25 -25 -25 -24 -24 -24 -24 -24
-24 -24 -26 -26 -27 -27 -27 -28 -27 -27 -26 -26 -25 -25 -25 -25 -25 -25 -25 -25 -25 -24 -24 -24 -24 -24 -25 -25 -25 -25 -25 -25 -25 -26 -26 -25 -25 -25 -26 -25 -26 -26 -26
-25 -26 -27 -27 -27 -28 -28 -27 -27 -26 -26 -25 -25 -25 -25 -25 -25 -25 -25 -24 -24 -24 -24 -24 -24 -24 -25 -26 -26 -26 -26 -26 -26 -26 -26 -26 -26 -27 -27 -27 -26 -26 -26
-26 -27 -27 -28 -28 -28 -27 -27 -26 -26 -25 -25 -25 -25 -25 -25 -24 -24 -25 -24 -24 -24 -24 -24 -24 -24 -25 -26 -27 -27 -26 -26 -26 -27 -27 -27 -27 -27 -27 -27 -27 -26 -27
-27 -28 -28 -28 -28 -27 -27 -26 -26 -26 -25 -25 -25 -25 -25 -24 -24 -24 -24 -24 -24 -24 -24 -24 -24 -24 -25 -26 -27 -27 -27 -27 -27 -28 -28 -28 -28 -28 -27 -27 -27 -27 -27
-28 -28 -28 -28 -27 -27 -26 -26 -26 -25 -25 -25 -25 -24 -24 -24 -23 -23 -24 -24 -24 -24 -24 -24 -25 -25 -26 -27 -27 -27 -28 -28 -28 -29 -29 -29 -29 -28 -28 -27 -27 -27 -27
-28 -28 -27 -27 -27 -26 -26 -26 -25 -25 -24 -24 -24 -24 -24 -24 -23 -24 -24 -23 -24 -24 -24 -25 -26 -26 -27 -27 -27 -28 -28 -28 -29 -29 -29 -29 -29 -28 -28 -28 -27 -27 -27
-28 -28 -27 -27 -26 -26 -26 -26 -25 -25 -24 -24 -24 -24 -24 -23 -23 -24 -24 -24 -24 -24 -25 -25 -26 -26 -27 -27 -27 -28 -28 -28 -28 -28 -28 -28 -28 -28 -28 -28 -27 -27 -27
-28 -27 -27 -27 -26 -26 -26 -25 -25 -25 -24 -24 -24 -24 -24 -23 -23 -24 -24 -24 -24 -25 -25 -25 -26 -26 -27 -28 -28 -28 -28 -28 -28 -28 -28 -28 -27 -27 -27 -27 -27 -26 -26
-28 -27 -27 -27 -26 -26 -25 -24 -24 -24 -24 -24 -24 -23 -23 -23 -24 -24 -24 -24 -24 -25 -25 -25 -26 -26 -27 -28 -28 -28 -28 -28 -28 -27 -28 -27 -27 -26 -26 -26 -26 -25 -25
-27 -27 -27 -27 -26 -26 -25 -24 -24 -24 -24 -23 -23 -23 -23 -23 -24 -24 -24 -24 -24 -24 -24 -24 -25 -26 -27 -28 -28 -28 -28 -28 -28 -28 -27 -27 -27 -26 -26 -26 -25 -25 -25
-27 -27 -27 -27 -26 -25 -25 -24 -24 -24 -23 -23 -23 -23 -23 -24 -24 -24 -24 -24 -24 -24 -24 -24 -24 -25 -27 -27 -28 -28 -27 -27 -28 -27 -27 -27 -27 -26 -26 -26 -25 -25 -25
-27 -27 -27 -27 -26 -25 -24 -24 -24 -23 -23 -22 -22 -23 -23 -24 -24 -24 -24 -24 -24 -24 -24 -24 -24 -25 -26 -27 -27 -28 -27 -27 -27 -27 -27 -27 -27 -26 -26 -26 -26 -25 -25
-27 -27 -26 -26 -26 -25 -24 -24 -23 -23 -22 -22 -22 -23 -23 -23 -24 -24 -24 -24 -24 -24 -24 -25 -24 -24 -25 -26 -27 -28 -27 -27 -27 -27 -27 -27 -26 -26 -26 -26 -26 -25 -25
-27 -26 -26 -26 -25 -24 -24 -24 -23 -23 -22 -22 -22 -23 -23 -23 -23 -24 -24 -24 -24 -24 -24 -24 -24 -24 -25 -26 -26 -27 -27 -27 -27 -27 -27 -27 -26 -26 -26 -26 -26 -26 -26
-27 -26 -26 -26 -25 -24 -24 -23 -23 -22 -22 -22 -22 -23 -23 -23 -23 -23 -23 -24 -24 -24 -24 -23 -23 -24 -25 -25 -26 -26 -27 -27 -27 -27 -27 -26 -26 -26 -25 -26 -25 -25 -26
-26 -26 -26 -25 -24 -24 -23 -23 -23 -22 -22 -22 -22 -22 -23 -23 -23 -23 -23 -24 -24 -24 -24 -23 -23 -24 -25 -25 -26 -26 -27 -27 -27 -27 -27 -27 -27 -27 -26 -26 -25 -25 -25
-26 -26 -26 -25 -24 -23 -23 -23 -22 -22 -21 -21 -22 -22 -23 -23 -23 -23 -23 -23 -24 -23 -24 -24 -23 -24 -23 -25 -25 -26 -27 -27 -27 -27 -27 -27 -27 -27 -27 -27 -26 -26 -26
Height
5704 5696 5689 5682 5675 5668 5660 5652 5646 5640 5633 5627 5621 5616 5610 5604 5598 5592 5587 5582 5576 5571 5566 5560 5557 5552 5547 5542 5536 5532 5528 5524 5524 5534 5525 5524 5526 5527 5530 5533 5537 5543 5549
5691 5682 5674 5666 5658 5651 5643 5636 5628 5622 5614 5607 5601 5595 5589 5583 5577 5570 5564 5558 5552 5546 5541 5535 5530 5524 5520 5516 5513 5511 5510 5508 5507 5511 5506 5507 5509 5510 5513 5517 5521 5526 5532
5677 5666 5658 5649 5641 5633 5625 5617 5609 5602 5595 5588 5581 5574 5568 5561 5554 5547 5540 5535 5528 5521 5515 5509 5506 5501 5500 5497 5495 5495 5494 5492 5491 5491 5492 5493 5494 5496 5499 5504 5509 5514 5519
5656 5649 5640 5631 5623 5614 5606 5598 5590 5582 5576 5568 5560 5553 5546 5539 5531 5523 5517 5511 5505 5500 5495 5491 5489 5486 5484 5482 5480 5479 5478 5477 5477 5477 5477 5480 5482 5484 5488 5492 5498 5503 5507
5638 5628 5619 5611 5603 5595 5587 5579 5571 5562 5553 5545 5538 5530 5523 5516 5508 5501 5497 5492 5488 5484 5481 5478 5475 5471 5469 5467 5466 5465 5464 5463 5463 5464 5466 5467 5471 5473 5477 5479 5485 5489 5494
5620 5611 5602 5593 5585 5576 5567 5558 5549 5539 5531 5523 5515 5508 5503 5498 5491 5487 5482 5478 5473 5469 5466 5463 5460 5458 5457 5456 5454 5453 5451 5449 5450 5451 5453 5455 5458 5460 5462 5465 5470 5475 5480
5602 5593 5584 5575 5566 5556 5546 5536 5526 5518 5511 5504 5498 5492 5487 5483 5479 5475 5469 5463 5458 5455 5451 5449 5448 5446 5445 5443 5442 5440 5440 5440 5439 5438 5439 5443 5445 5447 5449 5452 5456 5460 5465
5585 5576 5565 5555 5545 5535 5526 5518 5510 5503 5496 5490 5486 5480 5476 5472 5466 5462 5456 5451 5446 5443 5440 5438 5435 5433 5432 5428 5427 5426 5427 5427 5427 5427 5427 5428 5430 5433 5435 5437 5440 5444 5449
5568 5558 5547 5537 5529 5521 5513 5505 5498 5492 5487 5482 5476 5470 5464 5460 5454 5449 5444 5440 5436 5432 5430 5427 5422 5419 5419 5415 5412 5411 5411 5413 5412 5412 5414 5415 5418 5418 5419 5422 5425 5428 5432
5551 5542 5532 5524 5516 5509 5501 5495 5490 5484 5478 5472 5466 5458 5453 5449 5445 5441 5435 5430 5426 5422 5420 5415 5410 5405 5403 5400 5397 5395 5396 5396 5398 5401 5400 5403 5405 5406 5406 5407 5409 5413 5416
5537 5529 5521 5513 5505 5498 5493 5487 5481 5475 5469 5461 5455 5449 5445 5441 5437 5433 5427 5421 5415 5411 5408 5404 5398 5394 5391 5387 5386 5386 5386 5386 5388 5389 5390 5390 5391 5392 5392 5393 5396 5400 5403
5526 5518 5511 5503 5496 5491 5486 5479 5473 5465 5459 5452 5447 5442 5438 5434 5429 5425 5419 5414 5408 5403 5398 5394 5389 5384 5380 5378 5378 5378 5378 5377 5377 5378 5378 5378 5378 5378 5379 5382 5385 5389 5392
5516 5509 5502 5495 5489 5484 5478 5472 5465 5457 5450 5445 5440 5437 5433 5428 5423 5418 5414 5409 5403 5397 5391 5386 5379 5375 5372 5372 5373 5372 5371 5370 5368 5368 5368 5367 5367 5367 5369 5372 5375 5380 5384
5507 5501 5494 5489 5484 5478 5471 5463 5456 5450 5443 5438 5434 5431 5427 5422 5418 5414 5410 5404 5397 5390 5384 5378 5373 5369 5368 5369 5368 5366 5365 5364 5363 5362 5361 5360 5360 5361 5363 5365 5368 5372 5376
5499 5493 5488 5484 5479 5473 5465 5455 5448 5443 5438 5434 5430 5425 5421 5417 5414 5410 5404 5398 5392 5386 5379 5373 5370 5368 5367 5365 5363 5362 5361 5361 5361 5358 5358 5358 5358 5360 5361 5362 5364 5367 5372
5492 5487 5483 5479 5473 5467 5460 5453 5443 5438 5433 5429 5424 5420 5416 5413 5410 5406 5401 5394 5388 5382 5376 5371 5368 5366 5365 5362 5360 5359 5359 5360 5360 5360 5360 5360 5361 5362 5363 5364 5365 5368 5371
5486 5482 5478 5473 5467 5461 5453 5447 5442 5435 5428 5425 5421 5416 5412 5410 5408 5404 5399 5392 5385 5379 5373 5368 5366 5364 5362 5361 5360 5360 5359 5360 5360 5362 5363 5363 5364 5366 5368 5369 5371 5373 5375
5481 5478 5474 5469 5462 5455 5448 5442 5437 5433 5429 5423 5418 5415 5412 5409 5407 5403 5397 5391 5384 5377 5372 5368 5365 5362 5361 5360 5361 5361 5361 5362 5362 5364 5366 5367 5369 5370 5374 5376 5377 5377 5379
5477 5474 5470 5464 5457 5450 5444 5438 5434 5429 5425 5422 5419 5414 5412 5408 5405 5402 5397 5392 5385 5378 5373 5368 5364 5361 5360 5360 5361 5362 5363 5364 5365 5366 5368 5370 5372 5374 5377 5380 5382 5383 5386
5473 5470 5466 5460 5453 5447 5441 5436 5432 5427 5424 5421 5417 5413 5411 5408 5405 5402 5398 5392 5386 5379 5373 5369 5365 5361 5359 5359 5361 5362 5364 5366 5367 5369 5372 5375 5377 5379 5381 5384 5388 5390 5393
5471 5467 5462 5457 5450 5444 5439 5435 5430 5426 5424 5421 5417 5413 5410 5408 5405 5402 5398 5393 5387 5381 5375 5369 5365 5362 5358 5358 5361 5362 5364 5368 5369 5371 5375 5380 5382 5385 5388 5390 5393 5396 5398
5468 5464 5459 5454 5447 5442 5437 5433 5429 5426 5424 5421 5418 5414 5411 5408 5405 5403 5399 5394 5388 5383 5376 5370 5366 5362 5359 5359 5360 5362 5365 5369 5372 5374 5377 5381 5385 5389 5393 5395 5398 5401 5404
5465 5461 5456 5451 5445 5440 5436 5432 5428 5425 5423 5421 5418 5415 5412 5410 5407 5404 5400 5395 5390 5384 5378 5372 5367 5363 5361 5360 5361 5363 5366 5371 5374 5378 5380 5383 5386 5391 5395 5400 5403 5406 5410
5462 5459 5454 5448 5443 5439 5435 5431 5428 5425 5423 5421 5418 5416 5414 5411 5408 5404 5400 5396 5391 5386 5380 5375 5369 5364 5362 5361 5362 5364 5367 5371 5376 5379 5382 5385 5388 5392 5395 5400 5405 5409 5413
5459 5456 5451 5447 5442 5438 5434 5431 5427 5425 5423 5421 5419 5417 5415 5412 5408 5405 5401 5397 5393 5388 5383 5377 5372 5368 5364 5363 5363 5366 5368 5371 5376 5380 5384 5387 5389 5392 5395 5399 5403 5408 5413
5457 5454 5449 5445 5441 5437 5434 5431 5428 5426 5423 5422 5420 5418 5416 5413 5410 5406 5402 5399 5395 5390 5386 5381 5377 5372 5368 5366 5365 5367 5370 5373 5377 5380 5384 5388 5390 5393 5396 5400 5403 5408 5413
Wind_Speed
55 60 63 66 68 70 70 69 68 68 69 70 72 73 74 75 77 77 77 79 81 83 84 85 85 87 89 88 85 79 73 67 63 54 57 57 57 56 55 55 56 54 53
60 63 67 68 68 68 69 70 72 73 72 72 73 73 74 75 76 79 80 82 84 86 88 90 88 81 75 67 61 56 55 54 54 46 48 48 46 46 43 41 43 42 39
63 68 70 70 71 72 72 73 72 72 72 71 72 74 75 76 77 80 84 86 86 81 74 69 64 57 52 50 49 48 49 48 46 43 42 43 41 39 39 35 33 32 33
69 71 72 72 72 71 70 69 70 70 71 73 74 76 79 80 83 83 79 71 64 62 56 51 48 46 44 45 47 46 43 43 41 39 37 36 35 35 33 35 36 37 38
71 72 71 70 69 68 68 69 71 74 77 79 80 81 79 74 66 61 59 53 48 47 47 47 46 45 45 41 41 41 40 41 40 39 37 37 37 38 39 43 43 44 44
72 71 69 69 69 69 72 77 80 77 76 72 65 59 55 54 50 48 47 48 49 50 48 45 40 37 36 36 37 38 37 38 37 37 36 38 38 41 42 44 44 45 45
69 68 68 69 71 75 75 70 65 62 59 57 53 48 45 44 43 46 49 51 48 44 40 37 36 35 35 36 36 36 36 36 38 41 41 41 43 43 44 45 46 48 49
66 68 71 72 71 65 60 58 55 51 47 42 40 41 41 43 47 47 43 41 39 39 39 37 38 39 38 38 38 39 38 40 41 42 44 45 43 40 41 42 45 47 48
69 70 70 64 59 57 53 48 43 38 38 39 40 42 45 43 39 38 36 38 39 40 40 41 43 44 41 44 46 45 45 44 42 38 39 41 40 41 43 44 47 49 52
69 66 58 55 52 48 43 38 38 37 38 41 42 41 38 35 33 35 36 37 40 42 42 41 41 41 38 38 39 38 36 32 29 23 34 36 38 40 42 42 40 39 38
59 52 51 48 45 39 35 37 38 39 41 41 37 35 32 33 32 32 35 39 39 36 34 35 36 35 31 33 32 29 26 25 28 32 34 35 36 37 38 36 34 32 32
49 47 45 45 37 34 35 38 40 42 39 36 32 30 31 30 32 34 32 31 34 35 36 35 34 33 31 27 23 23 23 25 25 26 29 33 36 33 33 33 30 31 31
44 42 43 35 31 33 37 38 41 39 36 32 31 29 28 31 30 25 25 29 32 32 31 30 30 27 21 14 16 20 21 21 21 21 21 24 24 24 24 29 31 28 27
40 39 33 28 30 35 38 43 40 35 32 31 28 27 28 23 19 21 26 29 29 29 30 30 24 16 9 10 16 17 13 10 8 12 12 11 12 13 15 19 21 24 27
36 33 27 30 31 35 40 43 37 32 29 26 27 29 23 18 17 23 26 27 28 29 28 25 17 10 10 15 13 11 9 6 9 10 8 4 3 5 6 9 13 19 21
32 26 28 29 33 36 39 34 34 30 26 27 31 27 25 16 16 23 26 28 29 28 26 19 14 12 13 14 8 8 5 4 2 3 5 6 8 6 9 11 13 13 15
26 25 27 30 34 38 36 30 24 25 28 29 27 25 18 11 17 20 22 27 28 24 20 17 13 14 13 8 4 5 2 7 4 3 2 7 13 13 11 7 8 13 12
24 25 27 30 35 37 33 27 22 21 23 23 21 17 12 14 15 17 23 27 28 23 17 17 14 14 12 3 2 6 6 8 7 7 8 14 16 18 12 11 14 16 16
23 25 26 31 37 35 29 23 22 24 20 16 16 16 13 15 14 17 22 26 29 26 17 16 16 14 9 5 5 5 8 11 8 8 9 11 16 14 16 22 21 18 21
23 25 27 33 37 32 25 21 22 21 16 16 18 14 11 12 13 16 20 24 28 27 22 16 17 15 7 6 9 5 6 14 10 11 11 14 13 20 21 25 23 25 20
22 25 27 33 35 28 22 21 21 16 13 16 13 12 11 9 11 16 17 21 27 28 26 18 14 14 8 3 13 6 10 17 12 14 15 13 16 20 16 16 21 20 20
22 24 27 33 32 25 20 21 19 13 11 13 10 11 11 10 12 15 18 21 23 27 27 23 15 10 8 2 9 10 17 21 17 16 15 13 13 13 14 16 17 19 17
22 25 28 33 29 22 20 20 17 11 10 12 8 9 11 12 13 16 18 20 24 25 27 24 19 9 5 2 5 12 20 27 21 18 15 12 11 13 11 13 13 15 16
22 25 28 31 25 19 19 19 15 10 10 11 7 7 12 13 15 15 16 17 22 24 23 26 22 17 4 2 7 10 16 27 26 20 15 11 12 16 18 17 15 13 10
21 24 27 28 21 18 19 19 14 10 9 10 7 7 12 12 15 17 18 18 19 22 21 23 21 19 8 4 5 10 13 19 24 24 20 17 15 13 15 20 20 18 16
19 23 26 23 18 17 18 17 11 10 10 6 7 7 10 12 16 18 18 16 19 21 20 21 19 16 14 7 5 8 15 18 23 25 20 16 13 16 14 21 21 21 19
Wind_Direction
303 302 300 298 297 297 296 295 294 293 292 292 291 291 291 291 291 291 290 290 289 288 287 286 286 286 286 287 285 283 281 279 278 272 269 267 265 263 261 259 257 255 252
302 301 299 298 297 296 295 294 294 293 292 292 292 291 291 291 291 291 291 290 290 290 290 290 290 288 284 282 281 278 276 276 277 271 267 265 264 261 257 251 251 251 247
302 300 299 298 296 296 295 294 293 293 292 292 292 292 292 292 293 293 294 293 293 293 290 287 288 286 284 280 278 276 277 276 275 271 265 263 259 255 251 246 240 236 238
302 300 299 299 298 297 296 295 295 295 295 296 296 296 296 296 295 295 294 291 291 290 289 289 288 287 284 281 280 278 275 273 271 267 260 254 249 247 245 244 243 242 243
301 301 302 300 299 298 298 298 300 300 300 299 298 296 296 294 294 293 293 292 293 293 291 289 289 287 285 282 279 277 274 274 270 264 259 257 252 251 250 249 247 246 247
302 303 303 302 302 302 303 303 303 302 298 297 297 297 296 295 294 294 295 295 295 294 292 290 288 285 281 280 279 278 278 277 272 265 260 258 256 255 253 250 248 246 245
305 306 305 304 304 306 306 304 301 301 301 299 299 299 297 298 296 296 297 296 296 294 293 292 290 288 287 284 278 274 272 275 277 272 263 260 261 260 258 257 256 253 248
309 308 308 309 309 308 307 306 306 306 306 305 303 302 301 300 300 300 298 297 296 295 295 295 294 291 291 288 282 276 275 276 277 275 272 271 265 258 256 259 258 254 251
310 311 311 310 310 311 310 308 309 310 310 308 306 305 304 303 302 301 300 298 296 296 298 298 296 293 291 286 282 280 277 275 274 273 268 262 259 266 267 263 261 260 257
313 312 311 312 313 311 312 312 312 313 313 310 309 307 306 306 304 303 302 301 301 302 302 301 296 295 294 290 288 286 286 279 266 256 261 259 265 266 266 265 260 256 258
313 313 314 315 315 314 314 314 316 316 315 313 312 310 309 308 307 309 309 307 307 308 309 307 305 303 296 287 285 285 282 274 269 253 258 267 267 266 262 260 257 248 251
314 316 316 318 314 314 318 319 319 319 317 315 315 314 314 314 316 314 313 313 313 313 310 310 305 298 292 280 276 276 279 277 273 272 269 265 266 262 254 251 250 240 244
316 316 319 318 316 318 321 321 321 320 319 319 318 318 317 320 315 316 320 319 316 313 314 313 309 303 294 277 274 283 284 286 283 276 272 267 265 259 253 243 245 242 237
317 320 320 319 320 323 324 324 324 322 322 322 322 322 322 318 318 326 325 323 323 321 323 325 323 311 291 287 291 288 290 293 293 294 286 265 259 251 244 237 233 229 225
320 320 320 321 321 324 327 325 324 326 326 325 323 327 329 326 325 333 335 337 338 334 331 331 328 310 295 306 302 296 282 268 310 300 272 210 193 186 180 187 205 211 212
320 318 321 322 323 327 327 328 327 327 327 327 329 329 327 326 334 341 339 338 339 340 340 336 327 311 306 318 311 326 308 256 186 151 134 125 73 113 156 151 141 151 181
320 320 324 326 329 330 329 332 333 326 328 329 336 337 343 342 347 348 349 350 349 347 349 349 335 323 316 313 320 345 31 150 155 112 157 117 119 127 119 108 126 138 156
322 323 328 332 333 332 335 335 335 333 330 332 337 350 2 356 354 2 3 2 1 360 1 357 344 333 319 262 118 62 124 138 147 153 134 134 132 92 99 94 128 96 107
323 325 331 337 336 338 338 338 339 337 342 344 343 337 346 349 359 6 7 7 7 4 359 1 352 342 323 194 160 121 147 158 150 161 139 140 131 107 109 135 111 107 121
324 326 331 339 339 341 339 342 340 343 347 344 345 345 346 351 359 360 3 5 4 3 360 354 358 357 341 190 172 162 154 155 149 142 147 144 129 127 125 138 116 101 121
325 327 333 337 341 343 343 344 343 348 348 349 3 4 1 2 4 2 3 3 5 4 359 356 351 3 3 186 183 180 161 160 150 144 153 156 135 142 133 138 135 131 140
325 331 335 337 345 345 346 345 346 351 347 354 4 17 20 15 15 15 10 5 2 3 2 360 354 357 12 187 189 180 164 157 150 145 144 151 165 153 139 143 136 145 149
322 332 335 339 346 347 346 347 348 346 345 352 359 16 20 21 14 4 1 5 8 6 3 1 6 351 10 166 171 170 170 169 156 148 144 145 172 196 191 162 155 135 143
321 329 334 340 346 348 348 348 347 345 343 348 356 20 24 13 360 358 1 4 8 9 5 4 6 12 11 152 184 177 178 179 175 172 171 171 166 192 206 200 194 183 163
321 328 335 342 348 349 348 351 348 351 353 352 3 17 17 18 13 13 14 14 9 18 13 15 13 17 28 55 178 187 172 175 179 177 181 178 175 175 190 192 191 196 195
326 331 337 346 351 350 351 352 358 5 359 17 18 16 13 15 17 12 4 2 12 14 16 21 21 31 35 51 79 183 184 174 181 177 173 173 180 179 173 168 168 176 174